Radioactive Concentration measured by Seawater Radiation Monitor near Fukushima Daiichi Nuclear Power Station
Date,Time,Cs137(Bq/L),Cs134(Bq/L),Total β(Bq/L)
2016/11/11,00:00,0.69,0.097,ND
2016/11/11,00:10,0.70,0.086,ND
2016/11/11,00:20,0.69,0.091,ND
2016/11/11,00:30,0.71,0.091,ND
2016/11/11,00:40,0.70,0.090,ND
2016/11/11,00:50,0.72,0.097,ND
2016/11/11,01:00,0.75,0.096,ND
2016/11/11,01:10,0.76,0.10,ND
2016/11/11,01:20,0.77,0.096,ND
2016/11/11,01:30,0.80,0.085,ND
2016/11/11,01:40,0.80,0.094,ND
2016/11/11,01:50,0.79,0.095,ND
2016/11/11,02:00,0.82,0.095,ND
2016/11/11,02:10,0.84,0.095,ND
2016/11/11,02:20,0.84,0.10,ND
2016/11/11,02:30,0.83,0.11,ND
2016/11/11,02:40,0.87,0.099,ND
2016/11/11,02:50,0.87,0.097,ND
2016/11/11,03:00,0.81,0.094,ND
2016/11/11,03:10,0.85,0.090,ND
2016/11/11,03:20,0.85,0.087,ND
2016/11/11,03:30,0.85,0.089,ND
2016/11/11,03:40,0.88,0.10,ND
2016/11/11,03:50,0.90,0.098,ND
2016/11/11,04:00,0.88,0.096,ND
2016/11/11,04:10,0.83,0.092,ND
2016/11/11,04:20,0.81,0.10,ND
2016/11/11,04:30,0.79,0.11,ND
2016/11/11,04:40,0.79,0.10,8.9
2016/11/11,04:50,0.76,0.11,ND
2016/11/11,05:00,0.77,0.10,ND
2016/11/11,05:10,0.79,0.10,ND
2016/11/11,05:20,0.82,0.091,ND
2016/11/11,05:30,0.83,0.081,ND
2016/11/11,05:40,0.82,0.091,ND
2016/11/11,05:50,0.85,0.080,ND
2016/11/11,06:00,0.88,0.083,ND
2016/11/11,06:10,0.89,0.084,ND
2016/11/11,06:20,0.87,0.091,ND
2016/11/11,06:30,0.86,0.11,ND
2016/11/11,06:40,0.89,0.096,ND
2016/11/11,06:50,0.88,0.11,ND
2016/11/11,07:00,0.88,0.10,ND
2016/11/11,07:10,0.87,0.10,ND
2016/11/11,07:20,0.87,0.11,ND
2016/11/11,07:30,0.88,0.11,ND
2016/11/11,07:40,0.89,0.12,ND
2016/11/11,07:50,0.89,0.12,ND
2016/11/11,08:00,0.91,0.12,ND
2016/11/11,08:10,0.91,0.13,ND
2016/11/11,08:20,0.95,0.12,ND
2016/11/11,08:30,0.97,0.12,ND
2016/11/11,08:40,0.96,0.12,ND
2016/11/11,08:50,0.98,0.11,ND
2016/11/11,09:00,0.97,0.12,ND
2016/11/11,09:10,0.98,0.11,ND
2016/11/11,09:20,0.98,0.11,ND
2016/11/11,09:30,0.98,0.11,ND
2016/11/11,09:40,1.0,0.10,ND
2016/11/11,09:50,0.96,0.11,ND
2016/11/11,10:00,0.96,0.099,ND
2016/11/11,10:10,0.93,0.11,8.8
2016/11/11,10:20,0.93,0.11,ND
2016/11/11,10:30,0.90,0.12,ND
2016/11/11,10:40,0.88,0.13,ND
2016/11/11,10:50,0.90,0.13,ND
2016/11/11,11:00,0.89,0.13,ND
2016/11/11,11:10,0.87,0.11,ND
2016/11/11,11:20,0.87,0.11,ND
2016/11/11,11:30,0.88,0.11,ND
2016/11/11,11:40,0.89,0.12,ND
2016/11/11,11:50,0.84,0.13,ND
2016/11/11,12:00,0.86,0.15,ND
2016/11/11,12:10,0.81,0.16,ND
2016/11/11,12:20,0.78,0.16,ND
2016/11/11,12:30,0.80,0.15,ND
2016/11/11,12:40,0.79,0.14,ND
2016/11/11,12:50,0.81,0.11,ND
2016/11/11,13:00,0.83,0.10,ND
2016/11/11,13:10,0.86,0.083,ND
2016/11/11,13:20,0.86,0.093,ND
2016/11/11,13:30,0.87,0.086,ND
2016/11/11,13:40,0.82,0.079,ND
2016/11/11,13:50,0.81,0.079,ND
2016/11/11,14:00,0.78,0.082,ND
2016/11/11,14:10,0.78,0.083,ND
2016/11/11,14:20,0.77,0.085,ND
2016/11/11,14:30,0.76,0.083,ND
2016/11/11,14:40,0.81,0.082,ND
2016/11/11,14:50,0.80,0.085,ND
2016/11/11,15:00,0.80,0.083,ND
2016/11/11,15:10,0.77,0.084,ND
2016/11/11,15:20,0.78,0.082,ND
2016/11/11,15:30,0.80,0.090,ND
2016/11/11,15:40,0.82,0.092,ND
2016/11/11,15:50,0.84,0.10,ND
2016/11/11,16:00,0.89,0.11,ND
2016/11/11,16:10,0.94,0.12,ND
2016/11/11,16:20,0.95,0.13,ND
2016/11/11,16:30,0.96,0.13,ND
2016/11/11,16:40,0.96,0.13,ND
2016/11/11,16:50,0.98,0.12,ND
2016/11/11,17:00,0.98,0.12,ND
2016/11/11,17:10,0.97,0.11,ND
2016/11/11,17:20,0.95,0.11,ND
2016/11/11,17:30,0.93,0.11,9.0
2016/11/11,17:40,0.90,0.10,ND
2016/11/11,17:50,0.87,0.097,ND
2016/11/11,18:00,0.82,0.078,ND
2016/11/11,18:10,0.79,0.095,ND
2016/11/11,18:20,0.80,0.11,ND
2016/11/11,18:30,0.78,0.13,ND
2016/11/11,18:40,0.81,0.12,ND
2016/11/11,18:50,0.82,0.13,ND
2016/11/11,19:00,0.86,0.12,ND
2016/11/11,19:10,0.86,0.11,ND
2016/11/11,19:20,0.90,0.10,ND
2016/11/11,19:30,0.92,0.095,ND
2016/11/11,19:40,0.92,0.099,ND
2016/11/11,19:50,0.92,0.10,ND
2016/11/11,20:00,0.89,0.12,ND
2016/11/11,20:10,0.91,0.12,ND
2016/11/11,20:20,0.92,0.12,ND
2016/11/11,20:30,0.94,0.12,ND
2016/11/11,20:40,0.91,0.13,ND
2016/11/11,20:50,0.92,0.13,ND
2016/11/11,21:00,0.94,0.12,ND
2016/11/11,21:10,0.92,0.12,ND
2016/11/11,21:20,0.90,0.13,ND
2016/11/11,21:30,0.88,0.12,ND
2016/11/11,21:40,0.89,0.12,ND
2016/11/11,21:50,0.88,0.11,ND
2016/11/11,22:00,0.84,0.11,ND
2016/11/11,22:10,0.84,0.11,ND
2016/11/11,22:20,0.85,0.11,ND
2016/11/11,22:30,0.83,0.11,ND
2016/11/11,22:40,0.81,0.12,ND
2016/11/11,22:50,0.80,0.12,ND
2016/11/11,23:00,0.80,0.095,ND
2016/11/11,23:10,0.83,0.090,ND
2016/11/11,23:20,0.86,0.094,ND
2016/11/11,23:30,0.89,0.093,ND
2016/11/11,23:40,0.91,0.092,ND
2016/11/11,23:50,0.93,0.098,ND
